Regional Weather Roundup
Issued by NWS

Home | Current Version | Previous Version | Graphics & Text | Print | Product List | Glossary On
Versions: 1 2 3 4 5 6 7 8 9 10 11 12 13 14 15 16 17 18 19 20 21 22 23 24 25 26 27 28 29 30 31 32 33 34 35 36 37 38 39 40 41 42 43 44 45 46 47 48 49 50
000
ASUS43 KOAX 221802
RWRNE

WEATHER ROUNDUP FOR NEBRASKA
NATIONAL WEATHER SERVICE OMAHA NE
1200 PM CST MON JAN 22 2018

NOTES: SATELLITE DATA IS BEING USED TO AUGMENT CLOUD COVER ABOVE
       12000 FEET.
       "FAIR" INDICATES FEW OR NO CLOUDS BELOW 12,000 FEET WITH NO
       SIGNIFICANT WEATHER AND/OR OBSTRUCTIONS TO VISIBILITY.


NEZ001>004-019>022-054>056-221900-
NEBRASKA PANHANDLE

CITY           SKY/WX    TMP DP  RH WIND       PRES   REMARKS
SCOTTSBLUFF    SUNNY     25  13  60 NW15      30.01F WCI  13
6HR MIN TEMP:  16; 6HR MAX TEMP:  25;

ALLIANCE       MOSUNNY   26  16  65 NW7       29.97S WCI  18
6HR MIN TEMP:  22; 6HR MAX TEMP:  26;

CHADRON        SUNNY     20  11  68 VRB6      30.03S WCI  12
6HR MIN TEMP:  14; 6HR MAX TEMP:  21;

GORDON         FAIR      26  16  66 W13       29.97S WCI  15
6HR MIN TEMP:  17; 6HR MAX TEMP:  26;

KIMBALL        SUNNY     28  16  61 NW18G28   29.98S WCI  15
SIDNEY         SUNNY     28  15  58 NW16      29.99R WCI  16
6HR MIN TEMP:  20; 6HR MAX TEMP:  28;

$$

NEZ057>060-069>072-079>082-221900-
SOUTHWEST NEBRASKA

CITY           SKY/WX    TMP DP  RH WIND       PRES   REMARKS
NORTH PLATTE   MIX PCPN  30  21  69 NW24G32   29.90R WCI  16
IMPERIAL       FLURRIES  28  19  69 NW21G26   29.95R WCI  15
6HR MIN TEMP:  25; 6HR MAX TEMP:  28; 6HR PCP: TRACE;

LEXINGTON        N/A     30  26  83 NW16      29.82S WCI  19
MCCOOK         LGT SNOW  30  23  75 NW28G38   29.89R WCI  15
6HR MIN TEMP:  28; 6HR MAX TEMP:  30;

OGALLALA       MOSUNNY   30  21  68 NW16      29.95S WCI  19
$$

NEZ005>010-023>029-035>040-094-221900-
NORTH CENTRAL NEBRASKA

CITY           SKY/WX    TMP DP  RH WIND       PRES   REMARKS
VALENTINE      PTSUNNY   28  21  75 NW16      29.91R WCI  16
6HR MIN TEMP:  25; 6HR MAX TEMP:  28;

AINSWORTH      CLOUDY    27  23  87 N21G26    29.88R WCI  13
BROKEN BOW     CLOUDY    29  23  78 NW30G39   29.80R WCI  13
6HR MIN TEMP:  28; 6HR MAX TEMP:  29;

O`NEILL        CLOUDY    24  23  94 N24       29.82S WCI   9
ORD            CLOUDY    28  22  78 N31G41    29.77S HAZE    WCI  12
6HR MIN TEMP:  26; 6HR MAX TEMP:  29; 6HR PCP:  0.05;

THEDFORD       CLOUDY    29  23  79 NW21G29   29.89S WCI  16
$$

NEZ041-046>049-061>064-073>077-083>087-221900-
SOUTH CENTRAL NEBRASKA

CITY           SKY/WX    TMP DP  RH WIND       PRES   REMARKS
GRAND ISLAND   FOG       27  26  96 NW36G46   29.66R VSB 1/4 WCI  10
6HR MIN TEMP:  26; 6HR MAX TEMP:  31; 6HR PCP:  0.07;

AURORA         CLOUDY    28  27  97 NW38G44   29.62F WCI  10
HASTINGS       FOG       28  26  92 NW36G52   29.66R VSB 1/2 WCI  11
6HR MIN TEMP:  28; 6HR MAX TEMP:  32; 6HR PCP:  0.07;

HEBRON         LGT SNOW  32  28  88 N28G38    29.59R WCI  18
HOLDREGE       CLOUDY    31  26  82 NW12      29.76R WCI  21
KEARNEY        CLOUDY    30  25  81 N30G40    29.74S WCI  15
YORK           HVY SNOW  27  27 100 N23       29.58S VSB 1/4 WCI  12
$$

NEZ011>018-030>034-042>045-221900-
NORTHEAST NEBRASKA

CITY           SKY/WX    TMP DP  RH WIND       PRES   REMARKS
NORFOLK        FOG       25  24  96 N31G47    29.60F VSB 1/2 WCI   8
6HR MIN TEMP:  24; 6HR MAX TEMP:  36; 6HR PCP:  0.05;

ALBION         HVY SNOW  26  23  91 NW33G43   29.66F VSB<1/4 WCI   8
BLAIR          SNOW      31  30  94 N26G37    29.44R VSB 1/2 WCI  18
COLUMBUS       SNOW      27  26  96 MISG      29.59R VSB 1/4
TEKAMAH        SNOW      30  29  96 N40G53    29.51R VSB 1/4 WCI  13
6HR MIN TEMP:  30; 6HR MAX TEMP:  35; 6HR PCP:  0.47;

WAYNE            N/A     27  26  96 N35G48    29.59F WCI  10
$$

NEZ050>053-065>068-078-088>093-221900-
SOUTHEAST NEBRASKA

CITY           SKY/WX    TMP DP  RH WIND       PRES   REMARKS
LINCOLN        LGT SNOW  30  27  88 N37G52    29.50S FOG     WCI  14
6HR MIN TEMP:  30; 6HR MAX TEMP:  34; 6HR PCP:  0.07;

OMAHA EPPLEY   LGT SNOW  33  32  96 N18       29.45R FOG     WCI  22
6HR MIN TEMP:  33; 6HR MAX TEMP:  36; 6HR PCP:  0.22;

BEATRICE       LGT SNOW  32  29  91 N30G39    29.50S VSB 1   WCI  17
FALLS CITY     MIX PCPN  35  33  92 NW13      29.41S WCI  26
6HR MIN TEMP:  35; 6HR MAX TEMP:  37; 6HR PCP:  0.01;

NEBRASKA CITY  CLOUDY    34  34 100 N18G24    29.41S FOG     WCI  23
PLATTSMOUTH    LGT RAIN  34  34 100 NW16G23   29.42S WCI  23
$$

NEZ044-045-051>053-067-221900-
OMAHA AREA

CITY           SKY/WX    TMP DP  RH WIND       PRES   REMARKS
OMAHA EPPLEY   LGT SNOW  33  32  96 N18       29.45R FOG     WCI  22
6HR MIN TEMP:  33; 6HR MAX TEMP:  36; 6HR PCP:  0.22;

BLAIR          SNOW      31  30  94 N26G37    29.44R VSB 1/2 WCI  18
MILLARD        LGT SNOW  33  32  96 NW13G26   29.46S VSB 3/4 WCI  24
OFFUTT AFB     LGT RAIN  35  33  94 N17G29    29.42S FOG     WCI  24
PLATTSMOUTH    LGT RAIN  34  34 100 NW16G23   29.42S WCI  23
WAHOO          CLOUDY    29  28  93 N37G45    29.49S WCI  13
$$



USA.gov is the U.S. government's official web portal to all federal, state and local government web resources and services.